Weather History for Haifa, Israel

Change the Weather History Date:

Saturday, September 21, 2013

  Actual Average (LLBG) Record (LLBG)
Temperature  
Mean Temperature 81 °F -  
Max Temperature 84 °F 85 °F 91 °F (2005)
Min Temperature 78 °F 69 °F 68 °F (1997)
Cooling Degree Days 16    
Growing Degree Days 31 (Base 50)    
Moisture  
Dew Point 67 °F    
Average Humidity 63    
Maximum Humidity 74    
Minimum Humidity 51    
Precipitation  
Precipitation 0.00 in - - ()
Sea Level Pressure  
Sea Level Pressure 29.90 in    
Wind  
Wind Speed 7 mph ()    
Max Wind Speed 14 mph    
Max Gust Speed -    
Visibility 6.2 miles    
Events Rain    
Averages and records for this station are not official NWS values.
T = Trace of Precipitation, MM = Missing Value Source: Averaged Metar Reports

Daily Weather History Graph

Daily Weather History Graph

Search for Another Location

Airport:

Trip Planner

Search our weather history database for the weather conditions in past years. The results will help you decide how hot, cold, wet, or windy it might be!

Date:

Astronomy

Sep. 21, 2013 Rise Set
Actual Time 6:27 AM IDT 6:37 PM IDT
Civil Twilight 6:02 AM IDT 7:02 PM IDT
Nautical Twilight 5:33 AM IDT 7:31 PM IDT
Astronomical Twilight 5:04 AM IDT 8:00 PM IDT
Moon 7:45 PM IDT 8:15 AM IDT
Length of Visible Light 12h 59m
Length of Day
12h 10m
Waning Gibbous, 96% of the Moon is Illuminated
Sep 21
Waning Gibbous
Sep 27
Last Quarter
Oct 5
New
Oct 12
First Quarter
Oct 19
Full

Hourly Weather History & Observations

Time (IDT) Temp. Heat Index Dew Point Humidity Pressure Visibility Wind Dir Wind Speed Gust Speed Precip Events Conditions
5:37 AM 78.8 °F - 66.2 °F 65% 29.89 in 6.2 mi WNW 4.6 mph - N/A   Partly Cloudy
5:50 AM 78.8 °F - 68.0 °F 69% 29.89 in 6.2 mi WNW 5.8 mph - N/A   Partly Cloudy
6:50 AM 78.8 °F - 68.0 °F 69% 29.89 in 6.2 mi West 6.9 mph - N/A   Scattered Clouds
7:50 AM 78.8 °F - 66.2 °F 65% 29.92 in 6.2 mi WSW 6.9 mph - N/A   Partly Cloudy
8:50 AM 80.6 °F 82.7 °F 66.2 °F 61% 29.92 in 6.2 mi WSW 8.1 mph - N/A   Scattered Clouds
9:50 AM 82.4 °F 85.4 °F 68.0 °F 62% 29.92 in 6.2 mi WSW 9.2 mph - N/A   Scattered Clouds
10:50 AM 82.4 °F 85.4 °F 68.0 °F 62% 29.92 in 6.2 mi WNW 10.4 mph - N/A   Scattered Clouds
11:50 AM 82.4 °F 83.9 °F 64.4 °F 54% 29.92 in 6.2 mi West 9.2 mph - N/A   Partly Cloudy
12:50 PM 84.2 °F 85.6 °F 64.4 °F 51% 29.92 in 6.2 mi West 11.5 mph - N/A   Partly Cloudy
1:50 PM 84.2 °F 86.6 °F 66.2 °F 55% 29.92 in 6.2 mi West 10.4 mph - N/A   Partly Cloudy
2:50 PM 84.2 °F 86.6 °F 66.2 °F 55% 29.89 in 6.2 mi West 13.8 mph - N/A   Scattered Clouds
3:50 PM 82.4 °F 84.6 °F 66.2 °F 58% 29.89 in 6.2 mi West 12.7 mph - N/A   Mostly Cloudy
4:15 PM 80.6 °F 83.2 °F 68.0 °F 65% 29.89 in 6.2 mi NNW 12.7 mph - N/A   Mostly Cloudy
4:50 PM 78.8 °F - 69.8 °F 74% 29.89 in 6.2 mi NNW 10.4 mph - N/A   Mostly Cloudy
5:50 PM 80.6 °F 83.2 °F 68.0 °F 65% 29.89 in 6.2 mi WNW 6.9 mph - N/A   Scattered Clouds
6:50 PM 80.6 °F 83.9 °F 69.8 °F 70% 29.89 in 6.2 mi West 8.1 mph - N/A Rain Light Rain
7:50 PM 80.6 °F 83.2 °F 68.0 °F 65% 29.89 in 6.2 mi WNW 6.9 mph - N/A   Partly Cloudy
8:50 PM 80.6 °F 82.7 °F 66.2 °F 61% 29.89 in 6.2 mi West 8.1 mph - N/A   Scattered Clouds
9:50 PM 78.8 °F - 68.0 °F 69% 29.89 in 6.2 mi WNW 9.2 mph - N/A   Scattered Clouds